Regina,

2:17 AM CST on May 27, 2017 (GMT -0600)
Regina

Weather History for CYQR - October, 2012

Change the Weather History Date:

Monday, October 15, 2012

  Actual Average Record
Temperature  
Mean Temperature 48 °F -  
Max Temperature 60 °F 42 °F 68 °F (2010)
Min Temperature 37 °F 21 °F 15 °F (2003)
Degree Days  
Heating Degree Days 16    
Moisture  
Dew Point 41 °F    
Average Humidity 65    
Maximum Humidity 93    
Minimum Humidity 42    
Precipitation  
Precipitation 0.00 in 0.02 in - ()
Sea Level Pressure  
Sea Level Pressure 29.61 in    
Wind  
Wind Speed 10 mph ()    
Max Wind Speed 16 mph    
Max Gust Speed 17 mph    
Visibility 13.9 miles    
Events      
Averages and records for this station are not official NWS values.
T = Trace of Precipitation, MM = Missing Value Source: Averaged Metar Reports

Daily Weather History Graph

Daily Weather History Graph

Search for Another Location

Airport or City:

Trip Planner

Search our weather history database for the weather conditions in past years. The results will help you decide how hot, cold, wet, or windy it might be!

Date:

Astronomy

Oct. 15, 2012 Rise Set
Actual Time 7:22 AM CST 6:05 PM CST
Civil Twilight 6:49 AM CST 6:38 PM CST
Nautical Twilight 6:11 AM CST 7:16 PM CST
Astronomical Twilight 5:33 AM CST 7:54 PM CST
Moon 7:42 AM CST (10/15) 5:57 PM CST (10/15)
Length of Visible Light 11h 49m
Length of Day
10h 43m
New Moon, 0% of the Moon is Illuminated
Oct 15
New Moon
Oct 21
First Quarter
Oct 29
Full
Nov 6
Last Quarter
Nov 13
New

Hourly Weather History & Observations

Time (CST) Temp. Windchill Dew Point Humidity Pressure Visibility Wind Dir Wind Speed Gust Speed Precip Events Conditions
12:00 AM 51 °F - 40 °F 55% 29.68 in 9 mi SSE 15.0 mph - -  
12:00 AM 51.8 °F - 39.2 °F 62% 29.68 in 15.0 mi SSE 13.8 mph - N/A   Mostly Cloudy
1:00 AM 51.8 °F - 41.0 °F 67% 29.65 in 15.0 mi SSE 16.1 mph - N/A   Mostly Cloudy
2:00 AM 51.8 °F - 41.0 °F 67% 29.62 in 15.0 mi SSE 11.5 mph - N/A   Mostly Cloudy
3:00 AM 55.4 °F - 44.6 °F 67% 29.57 in 15.0 mi South 12.7 mph - N/A   Mostly Cloudy
4:00 AM 53.6 °F - 42.8 °F 67% 29.56 in 15.0 mi SW 9.2 mph - N/A   Mostly Cloudy
5:00 AM 48.2 °F - 41.0 °F 76% 29.56 in 15.0 mi SW 11.5 mph - N/A   Partly Cloudy
6:00 AM 50 °F - 41 °F 62% 29.56 in 9 mi WSW 11.5 mph - -  
6:00 AM 50.0 °F - 41.0 °F 71% 29.56 in 15.0 mi WSW 12.7 mph - N/A   Partly Cloudy
7:00 AM 46.4 °F 41.1 °F 39.2 °F 76% 29.57 in 15.0 mi WSW 11.5 mph - N/A   Mostly Cloudy
8:00 AM 46.4 °F 41.5 °F 39.2 °F 76% 29.57 in 15.0 mi West 10.4 mph - N/A   Mostly Cloudy
9:00 AM 48.2 °F - 41.0 °F 76% 29.58 in 15.0 mi West 9.2 mph - N/A   Mostly Cloudy
11:00 AM 59.0 °F - 42.8 °F 55% 29.60 in 15.0 mi NW 11.5 mph 17.3 mph N/A   Mostly Cloudy
12:00 PM 59 °F - 42 °F 42% 29.60 in 9 mi WNW 11.5 mph - -  
12:00 PM 59.0 °F - 42.8 °F 55% 29.60 in 15.0 mi WNW 11.5 mph - N/A   Overcast
1:00 PM 59.0 °F - 41.0 °F 51% 29.59 in 15.0 mi WNW 15.0 mph - N/A   Overcast
2:00 PM 60.8 °F - 42.8 °F 52% 29.60 in 15.0 mi WNW 11.5 mph - N/A   Overcast
3:00 PM 60.8 °F - 41.0 °F 48% 29.60 in 15.0 mi WNW 9.2 mph - N/A   Mostly Cloudy
4:00 PM 59.0 °F - 42.8 °F 55% 29.62 in 15.0 mi NW 11.5 mph - N/A   Mostly Cloudy
5:00 PM 59.0 °F - 42.8 °F 55% 29.62 in 15.0 mi NNW 6.9 mph - N/A   Mostly Cloudy
6:00 PM 55 °F - 42 °F 51% 29.64 in 4 mi Calm Calm - -  
6:00 PM 55.4 °F - 42.8 °F 63% 29.64 in 15.0 mi Calm Calm - N/A   Mostly Cloudy
7:00 PM 50.0 °F - 41.0 °F 71% 29.64 in 15.0 mi West 6.9 mph - N/A   Scattered Clouds
8:00 PM 41.0 °F 36.4 °F 35.6 °F 81% 29.66 in 15.0 mi West 6.9 mph - N/A   Mostly Cloudy
9:00 PM 41.0 °F 35.8 °F 35.6 °F 81% 29.68 in 15.0 mi WNW 8.1 mph - N/A   Scattered Clouds
10:00 PM 37.4 °F 33.8 °F 33.8 °F 87% 29.68 in 15.0 mi WNW 4.6 mph - N/A   Scattered Clouds
11:00 PM 37.4 °F - 35.6 °F 93% 29.66 in 15.0 mi Calm Calm - N/A   Scattered Clouds